When you browse on this site, cookies collect data to enhance your experience and personalize the content and advertising you see.
Visit our Privacy Policy to learn more. By continuing to use the site, you agree to this use of cookies and data.
  • In Österreich
  • Länderverzeichnis
  • Für 7 Tage
  • Wassertemperatur
  • Satellitenkarten
  • Wetterkarte
  • News
  • Widgets
  • user-avatar
    Anmelden

    Stündliche Wetter Rudnya

    Heute, 23 Mai, Donnerstag

    Zeit Temperatur Niederschläge Wind Luftdruck Luftfeuchtigkeit
    00:00 +15°C° 0 mm 1 m/S 744 mmHg 77%
    01:00 +15°C° 0 mm 1 m/S 744 mmHg 78%
    02:00 +15°C° 0 mm 1 m/S 743 mmHg 81%
    03:00 +14°C° 0 mm 0 m/S 744 mmHg 81%
    04:00 +14°C° 0 mm 0 m/S 744 mmHg 81%
    05:00 +14°C° 0 mm 0 m/S 744 mmHg 81%
    06:00 +16°C° 0 mm 0 m/S 744 mmHg 75%
    07:00 +18°C° 0 mm 0 m/S 744 mmHg 69%
    08:00 +20°C° 0 mm 0 m/S 744 mmHg 63%
    09:00 +23°C° 0 mm 1 m/S 744 mmHg 58%
    10:00 +25°C° 0 mm 1 m/S 744 mmHg 52%
    11:00 +26°C° 0 mm 1 m/S 744 mmHg 47%
    12:00 +26°C° 0 mm 1 m/S 744 mmHg 47%
    13:00 +26°C° 0 mm 1 m/S 744 mmHg 47%
    14:00 +26°C° 0 mm 1 m/S 744 mmHg 47%
    15:00 +26°C° 0 mm 1 m/S 744 mmHg 48%
    16:00 +26°C° 0 mm 1 m/S 743 mmHg 48%
    17:00 +26°C° 0 mm 1 m/S 743 mmHg 49%
    18:00 +24°C° 0 mm 1 m/S 743 mmHg 54%
    19:00 +22°C° 0 mm 1 m/S 743 mmHg 59%
    20:00 +20°C° 0 mm 1 m/S 744 mmHg 64%
    21:00 +20°C° 0 mm 1 m/S 744 mmHg 66%
    22:00 +19°C° 0 mm 1 m/S 744 mmHg 68%
    23:00 +18°C° 0 mm 1 m/S 744 mmHg 70%

    Morgen, 24 Mai, Freitag

    Zeit Temperatur Niederschläge Wind Luftdruck Luftfeuchtigkeit
    00:00 +18°C° 0 mm 1 m/S 744 mmHg 72%
    01:00 +15°C° 0 mm 0 m/S 744 mmHg 75%
    02:00 +15°C° 0 mm 0 m/S 744 mmHg 78%
    03:00 +15°C° 0 mm 0 m/S 744 mmHg 79%
    04:00 +15°C° 0 mm 0 m/S 744 mmHg 80%
    05:00 +16°C° 0 mm 1 m/S 744 mmHg 81%
    06:00 +19°C° 0 mm 1 m/S 744 mmHg 74%
    07:00 +21°C° 0 mm 1 m/S 745 mmHg 68%
    08:00 +23°C° 0 mm 1 m/S 745 mmHg 62%
    09:00 +25°C° 0.3 mm 1 m/S 745 mmHg 57%
    10:00 +24°C° 0.3 mm 0 m/S 744 mmHg 52%
    11:00 +25°C° 0.3 mm 0 m/S 744 mmHg 48%
    12:00 +25°C° 0 mm 0 m/S 744 mmHg 47%
    13:00 +25°C° 0 mm 0 m/S 744 mmHg 46%
    14:00 +25°C° 0 mm 0 m/S 744 mmHg 46%
    15:00 +25°C° 0 mm 0 m/S 743 mmHg 48%
    16:00 +25°C° 0 mm 0 m/S 743 mmHg 50%
    17:00 +24°C° 0 mm 0 m/S 743 mmHg 52%
    18:00 +25°C° 0 mm 1 m/S 743 mmHg 57%
    19:00 +23°C° 0 mm 1 m/S 743 mmHg 62%
    20:00 +21°C° 0 mm 1 m/S 743 mmHg 67%
    21:00 +20°C° 1.5 mm 1 m/S 743 mmHg 75%
    22:00 +19°C° 1.5 mm 1 m/S 743 mmHg 82%
    23:00 +18°C° 1.5 mm 1 m/S 743 mmHg 89%

    übermorgen, 25 Mai, Samstag

    Zeit Temperatur Niederschläge Wind Luftdruck Luftfeuchtigkeit
    00:00 +18°C° 0.2 mm 1 m/S 743 mmHg 89%
    01:00 +18°C° 0.2 mm 1 m/S 743 mmHg 89%
    02:00 +18°C° 0.2 mm 1 m/S 742 mmHg 90%
    03:00 +18°C° 0 mm 1 m/S 742 mmHg 90%
    04:00 +18°C° 0 mm 1 m/S 742 mmHg 90%
    05:00 +18°C° 0 mm 1 m/S 742 mmHg 90%
    06:00 +19°C° 0.6 mm 1 m/S 742 mmHg 86%
    07:00 +20°C° 0.6 mm 1 m/S 742 mmHg 82%
    08:00 +22°C° 0.6 mm 1 m/S 743 mmHg 77%
    09:00 +23°C° 0.8 mm 1 m/S 742 mmHg 71%
    10:00 +24°C° 0.8 mm 2 m/S 742 mmHg 66%
    11:00 +25°C° 0.8 mm 2 m/S 742 mmHg 60%
    12:00 +25°C° 0.2 mm 3 m/S 742 mmHg 60%
    13:00 +25°C° 0.2 mm 3 m/S 742 mmHg 59%
    14:00 +25°C° 0.2 mm 3 m/S 742 mmHg 59%
    15:00 +25°C° 0.8 mm 3 m/S 742 mmHg 64%
    16:00 +24°C° 0.8 mm 3 m/S 742 mmHg 70%
    17:00 +22°C° 0.8 mm 3 m/S 741 mmHg 75%
    18:00 +21°C° 0.2 mm 3 m/S 742 mmHg 78%
    19:00 +19°C° 0.2 mm 3 m/S 742 mmHg 81%
    20:00 +18°C° 0.2 mm 3 m/S 742 mmHg 84%
    21:00 +17°C° 0 mm 3 m/S 742 mmHg 84%
    22:00 +16°C° 0 mm 3 m/S 742 mmHg 84%
    23:00 +14°C° 0 mm 3 m/S 743 mmHg 83%

    26 Mai, Sonntag

    Zeit Temperatur Niederschläge Wind Luftdruck Luftfeuchtigkeit
    00:00 +13°C° 0 mm 3 m/S 743 mmHg 86%
    01:00 +13°C° 0 mm 3 m/S 743 mmHg 88%
    02:00 +13°C° 0 mm 2 m/S 743 mmHg 90%
    03:00 +13°C° 0 mm 2 m/S 743 mmHg 91%
    04:00 +13°C° 0 mm 2 m/S 744 mmHg 92%
    05:00 +13°C° 0 mm 2 m/S 744 mmHg 93%
    06:00 +15°C° 0 mm 2 m/S 744 mmHg 87%
    07:00 +16°C° 0 mm 2 m/S 744 mmHg 81%
    08:00 +18°C° 0 mm 2 m/S 744 mmHg 75%
    09:00 +19°C° 0.1 mm 3 m/S 744 mmHg 69%
    10:00 +20°C° 0.1 mm 3 m/S 744 mmHg 63%
    11:00 +21°C° 0.1 mm 3 m/S 744 mmHg 57%
    12:00 +21°C° 0 mm 4 m/S 744 mmHg 54%
    13:00 +22°C° 0 mm 4 m/S 744 mmHg 52%
    14:00 +22°C° 0 mm 4 m/S 744 mmHg 49%
    15:00 +22°C° 0 mm 4 m/S 744 mmHg 50%
    16:00 +22°C° 0 mm 4 m/S 743 mmHg 50%
    17:00 +22°C° 0 mm 4 m/S 743 mmHg 51%
    18:00 +21°C° 0 mm 3 m/S 743 mmHg 58%
    19:00 +19°C° 0 mm 2 m/S 743 mmHg 64%
    20:00 +17°C° 0 mm 2 m/S 743 mmHg 71%
    21:00 +16°C° 0 mm 2 m/S 743 mmHg 75%
    22:00 +16°C° 0 mm 3 m/S 744 mmHg 79%
    23:00 +14°C° 0 mm 3 m/S 744 mmHg 83%

    27 Mai, Montag

    Zeit Temperatur Niederschläge Wind Luftdruck Luftfeuchtigkeit
    00:00 +14°C° 0 mm 3 m/S 744 mmHg 87%
    01:00 +14°C° 0 mm 2 m/S 744 mmHg 91%
    02:00 +13°C° 0 mm 2 m/S 745 mmHg 95%
    03:00 +13°C° 0 mm 2 m/S 745 mmHg 94%
    04:00 +13°C° 0 mm 2 m/S 745 mmHg 93%
    05:00 +13°C° 0 mm 2 m/S 745 mmHg 92%
    06:00 +13°C° 0 mm 3 m/S 746 mmHg 83%
    07:00 +16°C° 0 mm 3 m/S 746 mmHg 74%
    08:00 +17°C° 0 mm 4 m/S 746 mmHg 66%
    09:00 +18°C° 0 mm 4 m/S 747 mmHg 61%
    10:00 +19°C° 0 mm 4 m/S 747 mmHg 57%
    11:00 +20°C° 0 mm 4 m/S 747 mmHg 52%
    12:00 +21°C° 0 mm 4 m/S 747 mmHg 50%
    13:00 +22°C° 0 mm 4 m/S 747 mmHg 49%
    14:00 +24°C° 0 mm 3 m/S 747 mmHg 47%
    15:00 +24°C° 0 mm 3 m/S 746 mmHg 48%
    16:00 +24°C° 0 mm 2 m/S 746 mmHg 48%
    17:00 +24°C° 0 mm 2 m/S 746 mmHg 49%
    18:00 +23°C° 0 mm 1 m/S 746 mmHg 56%
    19:00 +21°C° 0 mm 1 m/S 746 mmHg 62%
    20:00 +19°C° 0 mm 1 m/S 746 mmHg 68%
    21:00 +19°C° 0 mm 1 m/S 746 mmHg 71%
    22:00 +18°C° 0 mm 1 m/S 746 mmHg 73%
    23:00 +17°C° 0 mm 2 m/S 746 mmHg 76%

    28 Mai, Dienstag

    Zeit Temperatur Niederschläge Wind Luftdruck Luftfeuchtigkeit
    00:00 +17°C° 0 mm 2 m/S 746 mmHg 75%
    01:00 +17°C° 0 mm 2 m/S 746 mmHg 74%
    02:00 +17°C° 0 mm 3 m/S 746 mmHg 73%
    03:00 +17°C° 0.6 mm 3 m/S 745 mmHg 80%
    04:00 +17°C° 0.6 mm 3 m/S 745 mmHg 88%
    05:00 +17°C° 0.6 mm 4 m/S 745 mmHg 95%
    06:00 +18°C° 1.8 mm 4 m/S 744 mmHg 93%
    07:00 +17°C° 1.8 mm 5 m/S 744 mmHg 91%
    08:00 +19°C° 1.8 mm 5 m/S 744 mmHg 89%
    09:00 +21°C° 0 mm 6 m/S 744 mmHg 78%
    10:00 +22°C° 0 mm 6 m/S 743 mmHg 68%
    11:00 +24°C° 0 mm 7 m/S 743 mmHg 57%
    12:00 +26°C° 0 mm 7 m/S 743 mmHg 57%
    13:00 +27°C° 0 mm 7 m/S 743 mmHg 56%
    14:00 +27°C° 0 mm 7 m/S 743 mmHg 56%
    15:00 +27°C° 0.3 mm 7 m/S 742 mmHg 60%
    16:00 +26°C° 0.3 mm 6 m/S 742 mmHg 64%
    17:00 +26°C° 0.3 mm 6 m/S 742 mmHg 69%
    18:00 +25°C° 0.9 mm 5 m/S 742 mmHg 74%
    19:00 +22°C° 0.9 mm 5 m/S 742 mmHg 79%
    20:00 +21°C° 0.9 mm 5 m/S 742 mmHg 85%
    21:00 +20°C° 0 mm 4 m/S 742 mmHg 86%
    22:00 +20°C° 0 mm 4 m/S 742 mmHg 87%
    23:00 +19°C° 0 mm 4 m/S 742 mmHg 89%
    Mehr zeigen